User: anonymous   Login
Location: Arrodets-la-Barthe
(43.0306°N, 0.2829°E)
Time: 01:47:33
(UTC+00:00)
Language:

Cosmos 332 Rocket - Orbit

View from above orbital plane
View from above orbital plane
View from above satellite
View from above satellite

Ground track
Ground track

The orbit data is extracted from the following two-line orbital elements,

1 04370U 70028B   22019.53908341  .00000301  00000-0  68600-4 0  9996
2 04370  74.0395 129.2327 0016137 336.1957  23.8461 14.60167562256298
Epoch (UTC): 19 January 2022 12:56:16
Eccentricity: 0.0016137
inclination: 74.0395°
perigee height: 681 km
apogee height: 704 km
right ascension of ascending node: 129.2327°
argument of perigee: 336.1957°
revolutions per day: 14.60167562
mean anomaly at epoch: 23.8461°
orbit number at epoch: 25629

The dashed part of the orbit path shows where the satellite is in the earth's shadow,  

DLR